Location: Amsterdam
(30.7274°N, 84.4357°W)
Time: 21:37:15
(UTC+00:00)

Explorer 11/Cluster Stage 4 - Pass Details

Date: 22 February 2026
Orbit: 463 x 1176 km, 28.8° (Epoch: 5 March)

Event Time Altitude Azimuth Distance (km) Brightness Sun altitude
Rises 21:51:18 0° 265° (W) 2,572 10.5 19.6°
Reaches altitude 10° 21:54:22 10° 239° (WSW) 1,626 10.6 19.0°
Maximum altitude 21:56:23 14° 205° (SSW) 1,363 8.8 18.6°
Drops below altitude 10° 21:58:22 10° 171° (S) 1,593 8.4 18.2°
Sets 22:01:19 0° 145° (SE) 2,482 9.0 17.6°
